Tracking 28790 objects as of 18-Apr-2024
HD Live streaming from Space Station
objects crossing your sky now

DELTA 1 DEB

Track DELTA 1 DEB now!
10-day predictions


NORAD ID: 7146
Int'l Code: 1973-086DL
Perigee: 1,457.3 km
Apogee: 1,542.7 km
Inclination: 101.8 °
Period: 115.8 minutes
Semi major axis: 7870 km
RCS: 0.1412 m2 (medium)
Launch date: November 6, 1973
Source: United States (US)
Launch site: AIR FORCE WESTERN TEST RANGE (AFWTR)

Note: This is SATELLITE DEBRIS
Your satellite tracking list
Your tracking list is empty




NASA's NSSDC Master Catalog

Two Line Element Set (TLE):
1 07146U 73086DL  24109.61080772  .00001038  00000-0  77273-2 0  9999
2 07146 101.7677 357.4736 0054246 222.7272 212.5390 12.43257140275734
Source of the keplerian elements: AFSPC